CO-58
1 28895U 05043F 09266.69883262 .00000148 00000-0 40332-4 0 4029
2 28895 098.0434 154.4800 0018743 042.3067 317.9577 14.59796950208104
FALCON
1 30776U 07006E 09267.92099022 .00000376 00000-0 30204-4 0 6641
2 30776 035.4340 214.2815 0001159 022.6398 337.4376 15.03308892140112
MAST
1 31126U 07012K 09266.68198275 -.00000015 00000-0 73390-5 0 6926
2 31126 097.9767 316.9232 0094608 334.8326 024.8271 14.53517352129341
CAPE1
1 31130U 07012P 09267.71372517 .00000088 00000-0 31184-4 0 7024
2 31130 097.9796 315.8699 0102718 337.7508 021.9253 14.52088193129139
COMPASS
1 32787U 08021E 09267.24197014 .00000212 00000-0 33672-4 0 4715
2 32787 097.9334 330.1796 0016944 072.1147 288.1901 14.81658306 76115
AAUSAT2
1 32788U 08021F 09267.74178269 .00000300 00000-0 44690-4 0 4677
2 32788 097.9329 330.7497 0016680 071.0661 289.2347 14.81783954 76192
DO-64
1 32789U 08021G 09267.76346464 .00000469 00000-0 65978-4 0 4829
2 32789 097.9367 330.9995 0016792 069.1001 291.1998 14.81797022 76195
CO-66
1 32791U 08021J 09267.16135932 .00000376 00000-0 54626-4 0 4636
2 32791 097.9349 330.1327 0017298 069.4864 290.8203 14.81481288 76066
RS-30
1 32953U 08025A 09266.30655574 .00000010 00000-0 00000-0 0 04148
2 32953 082.5039 195.6012 0019024 329.3307 030.6658 12.43003151060585
TACSAT-3
1 35001U 09028A 09267.68744490 .00002513 00000-0 68537-4 0 1046
2 35001 040.4564 005.4931 0023397 184.6781 175.3817 15.39197617 19680
PHARMSAT
1 35002U 09028B 09267.68883938 .00002253 00000-0 60465-4 0 1018
2 35002 040.4699 004.7396 0026619 188.7586 171.2767 15.39949571 19688
HAWKSAT1
1 35003U 09028C 09266.67122187 .00004531 00000-0 11277-3 0 1050
2 35003 040.4631 010.1201 0026214 185.0812 174.9742 15.40694234 19547
CP6
1 35004U 09028D 09266.66990159 .00005363 00000-0 13217-3 0 994
2 35004 040.4607 010.1109 0025561 184.5654 175.4935 15.40762201 19539
AEROCUB3
1 35005U 09028E 09267.20387752 .00004854 00000-0 12102-3 0 1004
2 35005 040.4747 007.2635 0025612 185.9443 174.1073 15.40556961 19616
DRAGNSAT
1 35690U 09038B 09267.13185014 .00029262 00000-0 13822-3 0 531
2 35690 051.6396 155.5580 0002188 283.2389 076.8367 15.82789980 8808
POLLUX
1 35693U 09038E 09267.15150619 .00025324 00000-0 12393-3 0 558
2 35693 051.6398 155.6978 0002999 202.5979 157.5010 15.82117463 8773
CASTOR
1 35694U 09038F 09267.80341062 .00013764 00000-0 72405-4 0 539
2 35694 051.6408 152.5617 0003143 214.4095 145.6690 15.81064969 8879
METEOR-M
1 35865U 09049A 09267.76253122 .00000176 00000-0 10000-3 0 80
2 35865 098.8003 317.9196 0003392 063.6114 296.5400 14.21825734 1005
OBJECT-B
1 35866U 09049B 09267.76020534 .00000178 00000-0 10000-3 0 93
2 35866 098.8007 317.9269 0004133 060.3718 299.7853 14.22295747 1002
FREGAT-I
1 35867U 09049C 09267.69394093 .00002263 00000-0 10000-3 0 198
2 35867 097.3746 317.6403 0008464 263.5757 096.4296 15.22710586 1068
